Regional Weather Roundup
Issued by NWS Spokane, WA

Home | Current Version | Previous Version | Text Only | Print | Product List | Glossary On
Versions: 1 2 3 4 5 6 7 8 9 10 11 12 13 14 15 16 17 18 19 20 21 22 23 24 25 26 27 28 29 30 31 32 33 34 35 36 37 38 39 40 41 42 43 44 45 46 47 48 49 50
000
NZUS01 KOTX 260710
RWROTX
EASTERN WASHINGTON/NORTHERN IDAHO ROUNDUP
NATIONAL WEATHER SERVICE, SPOKANE WA
1100 PM PST SUN JAN 25 2015

Note: "fair" indicated few or no clouds below 12,000 feet with no
significant weather and/or obstructions to visibility.

...NORTHEAST WASHINGTON AND NORTHERN IDAHO PANHANDLE...

CITY           SKY/WX    TMP DP  RH WIND       PRES   REMARKS
SPOKANE INTL   FOG       37  37 100 N6        30.16F VSB 1/8
SPOKANE DOWNTO CLOUDY    40  38  93 CALM      30.18S
COEUR D ALENE  CLOUDY    37  36  93 NE8       30.17F VSB 3/4
DEER PARK      FOG       37  37 100 N7        30.18S VSB 1/4
SANDPOINT      FOG       34  34 100 CALM      30.21R VSB 1/4
BONNERS FERRY  FOG       36  36 100 CALM      30.19F VSB 1/2

...SOUTHEAST WASHINGTON AND SOUTHERN IDAHO PANHANDLE...

CITY           SKY/WX    TMP DP  RH WIND       PRES   REMARKS
WALLA WALLA    FOG       36  35  96 CALM      30.15F VSB 1/4
PULLMAN/MOSCOW CLEAR     45  38  76 E13       30.18S
LEWISTON       CLEAR     51  37  58 SE12      30.17S
LOWELL           N/A     37  35  92 N5        30.32S

...COLUMBIA BASIN...

CITY           SKY/WX    TMP DP  RH WIND       PRES   REMARKS
EPHRATA        CLOUDY    40  37  89 NW10      30.15S
MOSES LAKE     CLEAR     36  35  96 N8        30.16S
TRI CITIES     CLOUDY    39  39 100 W3        30.20S FOG
HERMISTON      CLOUDY    38  37  97 N3        30.16S FOG
PENDLETON      FOG       33  32  96 NW10      30.11R VSB<1/4 WCI  25

...EAST SLOPES CASCADES...

CITY           SKY/WX    TMP DP  RH WIND       PRES   REMARKS
THE DALLES     CLOUDY    46  44  93 E6        30.15S
YAKIMA         FOG       38  36  92 SW3       30.15F VSB 1/4
ELLENSBURG     FOG       34  31  88 CALM      30.14S VSB 1/4
WENATCHEE      CLOUDY    37  33  85 CALM      30.18F
OMAK           CLOUDY    35  33  92 W5        30.21S FOG

...SOUTHERN BRITISH COLUMBIA...

CITY           SKY/WX    TMP DP  RH WIND       PRES   REMARKS
PENTICTON      CLOUDY    39  36  87 S7        30.19S
CRANBROOK      MOCLDY    34  30  86 CALM      30.13F

...WESTERN MONTANA...

CITY           SKY/WX    TMP DP  RH WIND       PRES   REMARKS
MISSOULA       CLEAR     34  29  82 E5        30.25F WCI  30

...NEIGHBORING CITIES...

CITY           SKY/WX    TMP DP  RH WIND       PRES   REMARKS
SEATTLE        PTCLDY    47  46  97 NW3       29.99F
CALGARY        PTCLDY    46  28  49 SW6       29.91R



USA.gov is the U.S. government's official web portal to all federal, state and local government web resources and services.